Wind_Speed
21 24 25 25 25 26 29 32 34 34 35 36 38 40 43 45 46 48 50 52 54 56 59 60 60 60 61 61 61 61 61 59 55 50 45 44 44 44 43 41 40 37 34 33
23 26 27 28 29 29 30 32 34 36 37 38 39 42 45 48 50 52 55 57 59 60 61 60 59 58 58 58 59 61 62 61 59 55 51 50 49 48 46 44 41 38 33 32
25 25 27 28 29 30 32 34 37 39 40 41 43 47 51 54 54 55 58 61 62 61 60 62 65 67 69 69 68 69 69 68 65 62 59 56 52 48 46 45 42 39 33 30
28 28 31 33 34 36 38 39 41 42 42 44 47 51 54 55 55 56 59 62 65 70 74 77 79 79 79 78 77 76 75 73 70 66 62 57 52 47 46 45 42 39 34 30
31 32 34 36 39 41 43 44 44 45 46 49 53 57 59 65 72 75 76 78 82 85 87 87 87 86 85 84 83 81 79 76 72 68 62 55 50 47 46 45 42 39 34 30
32 35 36 38 40 42 43 45 48 50 53 56 60 64 66 71 75 78 81 83 86 87 89 89 90 90 88 85 82 79 75 71 66 62 56 51 47 46 47 46 43 40 36 31
31 33 36 37 38 40 44 49 53 57 62 66 69 73 75 77 80 83 86 88 88 87 85 81 78 76 75 72 69 65 61 56 51 48 46 44 44 45 46 45 44 42 39 33
30 32 35 38 42 46 51 57 61 66 70 74 78 81 83 84 85 85 83 79 74 70 64 58 55 54 52 49 47 46 43 40 39 40 40 40 41 42 45 47 45 43 41 36
32 36 41 46 51 56 61 65 70 74 78 81 83 83 82 79 73 66 59 55 52 49 45 41 39 39 39 39 39 37 35 34 35 38 41 42 43 44 46 50 47 42 41 37
39 44 48 53 58 63 68 72 76 79 80 79 76 72 66 61 56 50 46 44 43 42 39 37 36 35 36 37 38 37 35 35 37 39 42 43 45 45 47 52 51 43 41 38
46 50 54 58 63 68 73 77 80 79 74 69 64 59 55 50 46 44 44 44 43 43 42 41 41 41 40 41 41 39 38 37 39 40 40 40 40 41 47 54 54 47 42 37
50 55 60 63 68 73 77 79 77 72 64 56 51 47 45 46 47 48 48 48 49 51 52 52 51 50 48 47 46 44 42 39 38 37 37 35 32 34 45 53 56 48 42 37
55 59 64 68 72 75 77 74 68 59 51 43 40 42 45 48 50 53 55 57 58 59 59 59 57 55 53 52 50 47 43 39 36 35 32 29 24 28 42 51 51 48 44 39
58 63 67 71 74 75 73 67 56 44 38 37 40 43 48 52 54 55 57 59 59 59 58 56 54 51 49 48 45 42 37 34 32 30 27 20 18 28 41 44 46 48 44 41
60 66 71 75 75 72 68 57 43 34 34 36 41 46 50 53 53 55 56 57 57 55 53 50 46 43 40 38 36 32 29 27 25 24 20 17 22 32 37 42 47 47 43 40
64 69 74 77 77 73 64 47 35 31 34 39 43 48 51 53 53 55 56 56 55 51 45 40 35 31 29 27 25 23 22 22 21 19 17 20 28 33 36 44 47 46 42 38
67 72 76 78 78 70 54 38 32 32 37 42 46 50 52 52 53 55 55 55 53 48 41 33 26 20 18 17 17 17 19 19 19 18 19 25 29 33 40 45 46 44 39 34
70 75 78 78 74 63 45 33 31 35 40 44 47 51 52 53 53 52 52 52 49 45 39 30 22 14 10 10 12 15 17 18 19 20 24 28 31 35 40 43 44 41 37 33
71 75 76 73 68 58 41 32 33 37 41 44 48 51 52 53 52 49 48 48 47 43 38 30 20 11 4 8 12 15 17 19 21 24 29 32 33 35 39 41 41 38 35 31
71 74 74 70 64 52 39 33 35 38 41 45 48 50 51 52 50 47 45 44 44 42 38 31 21 12 3 7 12 15 19 22 25 30 33 34 33 34 36 38 39 37 33 29
71 73 74 69 60 48 38 34 35 38 42 46 48 49 51 50 48 45 41 40 38 38 38 33 23 14 9 11 16 20 24 28 33 35 35 33 33 34 34 36 36 34 30 27
70 72 72 68 60 47 37 33 35 38 42 45 47 48 48 48 45 40 39 38 36 36 36 32 24 15 13 18 24 29 34 36 36 35 33 31 30 30 31 33 33 30 27 24
69 71 70 66 60 47 35 32 34 38 42 45 46 47 46 45 42 39 37 36 36 35 33 28 22 19 23 29 34 37 38 37 35 33 31 29 27 27 29 30 30 28 24 21
67 69 68 65 59 49 36 31 32 36 40 43 44 44 42 39 36 35 34 33 32 30 25 21 21 26 32 37 39 39 38 35 32 30 28 27 26 26 27 28 28 27 24 21
66 67 66 63 56 47 35 29 30 34 38 40 40 38 36 34 32 32 32 31 28 24 21 20 25 31 35 37 38 37 36 33 31 28 26 25 24 23 23 24 26 26 24 22
65 66 65 61 54 46 36 31 31 34 36 38 37 33 29 28 28 29 29 27 23 22 21 23 26 29 31 32 33 32 31 30 27 24 21 19 18 18 20 21 23 24 24 22
64 65 63 57 49 44 36 30 30 32 35 37 36 30 25 24 25 26 24 22 20 21 23 24 25 25 26 27 27 27 26 24 21 18 16 13 13 15 18 21 22 23 22 20
Wind_Direction
317 311 310 307 301 297 295 297 298 298 296 295 294 293 292 291 291 290 289 288 288 288 289 288 287 288 288 290 291 291 289 288 290 293 294 294 296 297 296 297 301 305 308 307
316 311 307 304 301 299 298 298 298 298 296 294 291 290 288 288 287 287 286 284 282 282 282 279 277 279 281 283 283 282 282 283 286 288 290 291 291 291 290 289 292 295 299 299
313 309 305 304 304 304 304 304 304 302 299 296 295 295 295 289 283 281 281 277 273 270 272 276 281 283 284 284 284 283 283 285 288 290 290 288 286 285 283 281 281 284 288 290
313 310 309 307 307 307 308 307 306 304 304 301 296 296 295 287 281 281 279 277 277 280 283 284 285 285 285 285 284 284 284 283 284 285 285 282 280 276 273 271 271 274 277 279
312 312 312 312 313 314 314 313 311 310 306 297 293 293 289 287 287 287 285 284 284 285 285 286 286 285 284 283 282 281 281 281 281 281 280 277 272 267 263 261 261 264 267 269
315 314 313 312 313 316 317 312 312 308 303 299 296 293 290 287 286 286 286 285 285 285 286 286 286 285 284 284 283 282 280 279 279 277 274 268 262 256 253 252 251 254 258 260
312 312 313 317 320 319 311 310 309 307 304 301 298 297 295 291 289 288 288 288 289 289 289 290 289 288 286 285 283 281 278 275 271 266 261 256 252 247 242 243 243 247 250 253
322 322 323 324 322 317 313 311 309 307 304 301 300 298 295 293 293 293 294 295 296 296 295 294 291 289 289 288 284 279 273 268 262 259 256 254 250 246 239 234 236 241 244 246
329 328 326 324 320 317 315 313 311 309 306 304 302 301 301 303 304 304 302 300 299 299 299 297 293 292 293 291 288 284 279 274 269 265 263 260 256 252 242 231 226 230 238 241
327 326 324 321 319 317 316 314 313 311 309 308 308 310 312 312 312 310 307 304 302 300 300 298 295 294 294 293 288 284 280 277 275 273 269 264 259 252 240 228 221 219 229 232
326 326 324 322 320 318 317 316 315 314 314 315 315 315 315 316 317 316 313 308 303 300 298 296 293 291 290 291 289 285 282 281 281 278 273 269 261 250 231 220 212 208 216 217
329 327 326 324 323 321 320 319 318 318 319 318 317 318 319 320 320 317 313 308 303 299 297 294 292 289 287 286 285 285 284 283 282 276 274 271 262 242 219 210 203 200 201 199
331 330 329 328 326 324 323 322 322 323 323 324 325 324 323 322 320 317 313 308 304 300 296 293 289 286 283 281 281 282 282 280 277 273 272 269 250 223 207 200 198 191 190 189
333 333 332 330 329 329 327 327 328 329 331 332 331 330 328 328 327 325 322 318 312 306 300 294 290 286 281 278 277 277 274 271 268 267 266 254 224 199 192 191 187 184 186 188
335 335 334 334 333 333 333 333 333 334 335 333 333 334 335 335 334 333 331 328 324 317 308 300 293 287 281 276 272 267 261 256 254 255 251 228 198 184 182 182 180 180 183 187
338 337 336 337 338 338 337 336 337 336 335 335 337 337 338 338 337 337 336 336 335 330 322 312 302 290 278 268 260 250 240 234 235 235 227 203 189 181 175 174 175 177 181 186
338 338 339 340 342 341 339 337 337 337 336 337 338 339 340 339 339 340 341 343 343 341 336 328 316 299 278 256 238 224 215 214 214 212 201 188 181 173 168 170 173 177 180 184
339 339 341 343 343 342 341 339 337 336 336 339 341 342 341 341 341 343 345 349 351 351 348 342 333 312 272 234 212 202 198 197 194 191 185 179 173 164 162 167 172 176 181 184
340 341 343 344 343 341 340 339 336 336 337 341 343 344 343 343 344 344 346 350 355 359 1 359 354 343 265 208 193 185 184 182 178 175 172 170 165 158 158 165 172 176 180 184
341 342 343 345 344 340 338 335 335 336 339 342 344 345 344 345 347 346 347 351 357 2 7 10 11 19 63 164 169 170 169 166 163 161 162 163 159 157 160 167 173 176 178 181
342 342 344 345 345 340 335 333 334 337 340 344 345 345 346 348 348 350 353 356 360 6 11 15 20 34 78 128 143 147 148 148 149 153 158 159 157 160 165 170 172 174 176 179
342 343 344 345 346 342 335 332 334 338 340 343 345 345 346 348 352 356 358 0 3 8 15 19 26 49 91 121 131 134 136 138 143 151 156 158 160 164 168 170 172 172 174 177
342 343 344 345 346 344 338 334 334 337 340 344 346 347 348 350 355 360 4 7 9 13 17 24 42 76 103 116 122 125 128 133 141 148 154 158 159 163 167 171 172 172 174 179
341 343 345 345 346 345 339 334 334 336 342 346 347 347 349 354 1 5 8 11 15 20 27 44 71 95 107 113 116 119 124 131 138 145 151 157 160 162 166 170 173 175 178 182
341 343 345 345 345 346 341 337 336 338 345 349 350 350 352 357 5 9 11 14 21 32 51 76 94 103 107 110 113 117 123 129 137 144 149 154 157 160 165 170 174 178 179 178
342 343 346 346 345 346 344 341 338 341 347 353 355 356 358 2 7 13 19 26 39 56 75 90 99 103 105 108 112 114 118 123 128 133 139 146 155 163 169 173 177 180 181 181
342 344 346 347 345 345 345 340 337 341 348 354 358 1 5 9 13 19 27 38 56 72 84 91 95 100 103 107 110 113 116 119 122 125 132 144 161 175 182 184 186 189 191 195
Height
5834 5830 5827 5824 5821 5818 5814 5809 5805 5801 5797 5793 5788 5783 5779 5774 5770 5766 5762 5757 5753 5748 5744 5740 5736 5733 5730 5727 5723 5720 5718 5717 5717 5717 5716 5715 5714 5713 5711 5708 5705 5701 5698 5694
5830 5826 5822 5818 5814 5811 5808 5803 5799 5794 5789 5784 5780 5775 5769 5764 5759 5754 5748 5743 5737 5733 5728 5724 5720 5717 5714 5711 5708 5705 5703 5701 5700 5701 5701 5701 5701 5700 5700 5698 5695 5693 5691 5688
5825 5821 5816 5814 5809 5805 5800 5795 5790 5785 5781 5775 5769 5764 5757 5750 5744 5738 5733 5727 5721 5715 5711 5707 5704 5700 5697 5694 5692 5689 5686 5683 5682 5682 5684 5685 5685 5686 5686 5686 5685 5684 5683 5680
5819 5816 5811 5808 5801 5797 5792 5787 5782 5776 5770 5764 5758 5752 5745 5736 5727 5720 5714 5708 5702 5695 5690 5686 5682 5678 5675 5672 5670 5667 5665 5663 5662 5662 5664 5665 5667 5669 5671 5672 5672 5672 5673 5672
5812 5808 5803 5798 5792 5787 5782 5777 5771 5765 5759 5753 5745 5740 5734 5723 5713 5704 5696 5688 5680 5673 5666 5661 5655 5651 5648 5646 5644 5641 5639 5638 5638 5639 5642 5644 5647 5651 5654 5656 5658 5660 5662 5662
5805 5800 5796 5793 5786 5779 5774 5766 5760 5753 5746 5737 5728 5720 5715 5703 5691 5681 5672 5663 5655 5648 5642 5636 5628 5621 5619 5618 5615 5613 5612 5612 5613 5613 5617 5621 5625 5630 5636 5640 5644 5647 5650 5652
5800 5794 5788 5784 5778 5773 5765 5758 5748 5737 5727 5716 5705 5695 5686 5676 5665 5655 5646 5637 5628 5620 5615 5610 5601 5593 5591 5591 5588 5586 5585 5586 5587 5588 5592 5597 5603 5609 5616 5622 5628 5633 5637 5641
5794 5789 5785 5777 5770 5762 5753 5742 5731 5720 5707 5694 5683 5671 5659 5648 5639 5630 5619 5609 5600 5591 5587 5583 5577 5570 5567 5566 5563 5562 5562 5564 5567 5569 5573 5578 5584 5590 5596 5603 5611 5618 5623 5629
5788 5784 5775 5766 5757 5748 5736 5725 5713 5700 5687 5672 5658 5647 5635 5624 5614 5605 5596 5589 5582 5575 5570 5567 5562 5557 5554 5552 5549 5548 5548 5550 5552 5555 5558 5561 5566 5571 5577 5585 5593 5602 5610 5617
5781 5774 5766 5756 5745 5734 5721 5708 5695 5679 5664 5649 5634 5623 5613 5604 5596 5588 5581 5575 5569 5563 5558 5554 5550 5545 5542 5540 5537 5536 5536 5536 5537 5538 5540 5541 5545 5550 5556 5565 5574 5586 5597 5605
5773 5765 5756 5746 5733 5720 5706 5690 5674 5658 5644 5629 5616 5607 5598 5590 5583 5576 5570 5563 5557 5550 5545 5541 5536 5532 5529 5526 5523 5522 5522 5521 5521 5520 5521 5521 5522 5525 5532 5544 5558 5571 5585 5595
5765 5755 5743 5732 5718 5703 5688 5671 5653 5638 5627 5616 5604 5596 5589 5581 5574 5566 5558 5551 5543 5536 5529 5524 5519 5515 5512 5509 5507 5506 5506 5506 5505 5504 5504 5504 5504 5507 5514 5527 5543 5557 5571 5584
5754 5743 5731 5717 5702 5686 5669 5652 5636 5623 5611 5603 5596 5589 5582 5574 5565 5555 5545 5535 5526 5517 5509 5502 5497 5493 5491 5489 5488 5489 5490 5491 5490 5490 5490 5490 5491 5495 5505 5519 5534 5549 5562 5575
5744 5732 5720 5705 5688 5670 5652 5636 5623 5612 5603 5596 5589 5582 5573 5563 5552 5541 5528 5515 5503 5492 5483 5476 5472 5469 5467 5467 5468 5471 5474 5476 5478 5479 5481 5482 5484 5491 5502 5515 5528 5543 5557 5569
5735 5721 5706 5690 5673 5655 5638 5624 5613 5605 5598 5591 5583 5573 5563 5552 5540 5527 5513 5498 5484 5470 5460 5452 5448 5447 5446 5448 5451 5455 5459 5464 5467 5471 5474 5477 5483 5492 5501 5513 5525 5539 5553 5565
5724 5710 5695 5678 5660 5642 5626 5614 5606 5600 5593 5585 5577 5567 5555 5542 5529 5516 5501 5485 5469 5455 5443 5435 5430 5429 5429 5432 5436 5442 5448 5454 5459 5464 5469 5475 5483 5492 5502 5513 5525 5538 5551 5562
5713 5700 5684 5667 5649 5632 5618 5608 5601 5594 5587 5579 5570 5559 5547 5535 5522 5509 5495 5479 5462 5446 5434 5424 5419 5418 5419 5422 5427 5433 5440 5447 5453 5460 5466 5474 5484 5494 5503 5514 5526 5538 5550 5560
5702 5687 5670 5652 5636 5623 5613 5604 5597 5590 5582 5574 5564 5552 5540 5528 5515 5502 5489 5475 5459 5444 5431 5421 5415 5413 5414 5417 5423 5429 5436 5443 5450 5457 5466 5475 5485 5495 5506 5516 5528 5539 5549 5558
5693 5678 5662 5646 5630 5617 5608 5601 5594 5587 5578 5569 5559 5547 5535 5523 5511 5498 5486 5473 5459 5445 5433 5422 5416 5413 5413 5416 5422 5428 5435 5442 5450 5458 5467 5478 5488 5498 5508 5519 5529 5539 5549 5558
5686 5670 5655 5640 5627 5614 5605 5598 5591 5583 5575 5565 5555 5544 5533 5521 5509 5497 5485 5473 5460 5447 5435 5426 5420 5416 5416 5418 5423 5429 5436 5444 5453 5462 5473 5483 5494 5503 5512 5522 5532 5542 5551 5559
5679 5665 5650 5636 5624 5611 5601 5595 5589 5581 5572 5563 5552 5542 5531 5520 5508 5496 5486 5475 5464 5452 5441 5432 5426 5423 5421 5424 5427 5433 5441 5449 5459 5470 5481 5491 5500 5509 5518 5527 5536 5545 5553 5561
5673 5660 5646 5632 5620 5609 5599 5593 5586 5579 5571 5562 5552 5541 5530 5520 5510 5499 5489 5479 5469 5459 5450 5442 5435 5431 5430 5432 5435 5442 5449 5459 5469 5480 5490 5499 5507 5515 5524 5532 5540 5549 5556 5562
5668 5655 5641 5626 5615 5606 5596 5590 5583 5577 5569 5560 5550 5540 5530 5521 5511 5501 5492 5484 5475 5468 5461 5454 5448 5444 5442 5444 5448 5454 5462 5472 5481 5490 5499 5507 5514 5522 5529 5537 5545 5552 5558 5564
5663 5650 5637 5623 5611 5603 5594 5588 5583 5576 5569 5561 5551 5540 5531 5523 5515 5506 5498 5491 5484 5478 5473 5468 5463 5460 5459 5461 5465 5471 5478 5486 5494 5501 5509 5516 5522 5528 5535 5541 5548 5554 5559 5564
5658 5645 5633 5620 5609 5601 5591 5585 5581 5575 5569 5562 5553 5543 5534 5525 5518 5511 5504 5498 5493 5488 5484 5481 5478 5477 5477 5480 5484 5489 5494 5501 5507 5514 5519 5525 5530 5534 5539 5545 5550 5555 5560 5565
5653 5641 5628 5615 5604 5597 5589 5582 5577 5572 5567 5562 5554 5545 5537 5530 5523 5517 5512 5507 5503 5499 5496 5494 5493 5493 5494 5495 5498 5502 5506 5512 5517 5522 5526 5531 5535 5539 5543 5547 5552 5556 5561 5566
5648 5636 5624 5613 5603 5595 5588 5581 5576 5571 5566 5560 5553 5546 5539 5534 5529 5524 5520 5516 5513 5511 5509 5507 5507 5506 5507 5509 5511 5514 5517 5520 5524 5527 5531 5534 5537 5540 5544 5548 5552 5557 5561 5566